Weather History for KBCB - May, 2013

Change the Weather History Date:

Thursday, May 16, 2013

  Actual Average Record
Temperature  
Mean Temperature 67 °F 59 °F  
Max Temperature 78 °F 71 °F 86 °F (1982)
Min Temperature 56 °F 47 °F 25 °F (1973)
Degree Days  
Heating Degree Days 0 7  
Month to date heating degree days 159 131  
Since 1 July heating degree days 5300 5336  
Cooling Degree Days 2 1  
Month to date cooling degree days 3 5  
Year to date cooling degree days 3 8  
Growing Degree Days 20 (Base 50)    
Moisture  
Dew Point 58 °F    
Average Humidity 69    
Maximum Humidity 93    
Minimum Humidity 45    
Precipitation  
Precipitation T in 0.15 in 2.08 in (2001)
Month to date precipitation 3.88 2.05  
Year to date precipitation 19.92 15.06  
Snow  
Snow 0.00 in - - ()
Month to date snowfall 0.0  
Since 1 July snowfall 27.9  
Snow Depth 0.00 in    
Sea Level Pressure  
Sea Level Pressure 30.04 in    
Wind  
Wind Speed 5 mph (West)    
Max Wind Speed 13 mph    
Max Gust Speed 18 mph    
Visibility 10 miles    
Events Thunderstorm    
T = Trace of Precipitation, MM = Missing Value Source: NWS Daily Summary

Daily Weather History Graph

Daily Weather History Graph

Search for Another Location

Airport or City:

Trip Planner

Search our weather history database for the weather conditions in past years. The results will help you decide how hot, cold, wet, or windy it might be!

Date:

Astronomy

May. 16, 2013 Rise Set
Actual Time 6:12 AM EDT 8:24 PM EDT
Civil Twilight 5:42 AM EDT 8:53 PM EDT
Nautical Twilight 5:07 AM EDT 9:29 PM EDT
Astronomical Twilight 4:28 AM EDT 10:08 PM EDT
Moon 11:41 AM EDT (5/16) 12:46 AM EDT (5/16)
Length of Visible Light 15h 10m
Length of Day
14h 12m
Waxing Crescent, 35% of the Moon is Illuminated
May 16
Waxing Crescent
May 18
First Quarter
May 25
Full
May 31
Last Quarter
Jun 8
New

Hourly Weather History & Observations

Time (EDT) Temp. Heat Index Dew Point Humidity Pressure Visibility Wind Dir Wind Speed Gust Speed Precip Events Conditions
12:15 AM 69.8 °F - 60.8 °F 73% 30.02 in 10.0 mi WNW 4.6 mph - N/A   Clear
12:35 AM 68.0 °F - 60.8 °F 78% 30.02 in 10.0 mi West 4.6 mph - N/A   Clear
12:55 AM 66.2 °F - 59.0 °F 78% 30.02 in 10.0 mi Calm Calm - N/A   Clear
1:15 AM 66.2 °F - 59.0 °F 78% 30.02 in 10.0 mi Calm Calm - N/A   Clear
1:35 AM 66.2 °F - 59.0 °F 78% 30.01 in 10.0 mi Calm Calm - N/A   Clear
1:55 AM 66.2 °F - 59.0 °F 78% 30.01 in 10.0 mi WSW 3.5 mph - N/A   Clear
2:15 AM 66.2 °F - 59.0 °F 78% 30.01 in 10.0 mi WSW 3.5 mph - N/A   Clear
2:35 AM 66.2 °F - 59.0 °F 78% 30.01 in 10.0 mi West 3.5 mph - N/A   Clear
2:55 AM 64.4 °F - 57.2 °F 77% 30.01 in 10.0 mi WSW 3.5 mph - N/A   Clear
3:15 AM 64.4 °F - 59.0 °F 83% 30.00 in 10.0 mi WSW 3.5 mph - N/A   Clear
3:35 AM 60.8 °F - 57.2 °F 88% 30.00 in 10.0 mi Calm Calm - N/A   Clear
3:55 AM 60.8 °F - 57.2 °F 88% 30.00 in 10.0 mi Calm Calm - N/A   Clear
4:15 AM 59.0 °F - 57.2 °F 94% 30.01 in 10.0 mi Calm Calm - N/A   Clear
4:35 AM 60.8 °F - 57.2 °F 88% 30.01 in 10.0 mi Calm Calm - N/A   Clear
4:55 AM 59.0 °F - 57.2 °F 94% 30.01 in 10.0 mi Calm Calm - N/A   Clear
5:15 AM 59.0 °F - 55.4 °F 88% 30.01 in 10.0 mi Calm Calm - N/A   Clear
5:35 AM 60.8 °F - 55.4 °F 82% 30.01 in 10.0 mi Calm Calm - N/A   Clear
5:55 AM 60.8 °F - 53.6 °F 77% 30.02 in 10.0 mi Calm Calm - N/A   Clear
6:15 AM 60.8 °F - 53.6 °F 77% 30.01 in 10.0 mi Calm Calm - N/A   Clear
6:35 AM 60.8 °F - 53.6 °F 77% 30.02 in 10.0 mi Calm Calm - N/A   Clear
6:55 AM 64.4 °F - 53.6 °F 68% 30.02 in 10.0 mi West 3.5 mph - N/A   Clear
7:15 AM 66.2 °F - 55.4 °F 68% 30.02 in 10.0 mi Calm Calm - N/A   Clear
7:35 AM 68.0 °F - 57.2 °F 68% 30.03 in 10.0 mi West 3.5 mph - N/A   Clear
7:55 AM 69.8 °F - 57.2 °F 64% 30.04 in 10.0 mi West 6.9 mph - N/A   Clear
8:15 AM 71.6 °F - 57.2 °F 60% 30.04 in 10.0 mi West 4.6 mph - N/A   Clear
8:35 AM 69.8 °F - 57.2 °F 64% 30.04 in 10.0 mi West 4.6 mph - N/A   Clear
8:55 AM 71.6 °F - 57.2 °F 60% 30.05 in 10.0 mi West 4.6 mph - N/A   Clear
9:15 AM 71.6 °F - 57.2 °F 60% 30.05 in 10.0 mi West 3.5 mph - N/A Thunderstorm Clear
9:35 AM 71.6 °F - 57.2 °F 60% 30.05 in 10.0 mi WNW 5.8 mph - N/A   Clear
9:55 AM 73.4 °F - 57.2 °F 57% 30.04 in 10.0 mi WNW 10.4 mph 16.1 mph N/A   Clear
10:15 AM 73.4 °F - 57.2 °F 57% 30.04 in 10.0 mi WNW 10.4 mph 21.9 mph N/A   Clear
10:35 AM 73.4 °F - 57.2 °F 57% 30.04 in 10.0 mi WNW 6.9 mph 21.9 mph N/A   Clear
10:55 AM 73.4 °F - 57.2 °F 57% 30.05 in 10.0 mi WNW 8.1 mph 16.1 mph N/A   Clear
11:15 AM 73.4 °F - 59.0 °F 61% 30.05 in 10.0 mi West 3.5 mph - N/A   Clear
11:35 AM 75.2 °F - 60.8 °F 61% 30.04 in 10.0 mi WNW 5.8 mph - N/A   Clear
11:55 AM 75.2 °F - 59.0 °F 57% 30.04 in 10.0 mi WNW 11.5 mph 16.1 mph N/A   Clear
12:15 PM 77.0 °F - 59.0 °F 54% 30.05 in 10.0 mi WNW 13.8 mph 17.3 mph N/A   Clear
12:35 PM 77.0 °F - 59.0 °F 54% 30.05 in 10.0 mi NW 9.2 mph 19.6 mph N/A   Clear
12:55 PM 77.0 °F - 59.0 °F 54% 30.05 in 10.0 mi WNW 8.1 mph 18.4 mph N/A   Clear
1:15 PM 78.8 °F - 59.0 °F 51% 30.05 in 10.0 mi NW 11.5 mph 17.3 mph N/A   Scattered Clouds
1:35 PM 77.0 °F - 60.8 °F 57% 30.05 in 10.0 mi WNW 6.9 mph - N/A   Scattered Clouds
1:55 PM 75.2 °F - 60.8 °F 61% 30.05 in 10.0 mi WNW 5.8 mph - N/A   Scattered Clouds
2:15 PM 77.0 °F - 60.8 °F 57% 30.05 in 10.0 mi WNW 5.8 mph - N/A   Scattered Clouds
2:35 PM 78.8 °F - 60.8 °F 54% 30.05 in 10.0 mi WSW 11.5 mph - N/A   Clear
2:55 PM 78.8 °F - 60.8 °F 54% 30.04 in 10.0 mi WNW 5.8 mph - N/A   Clear
3:15 PM 78.8 °F - 60.8 °F 54% 30.02 in 10.0 mi WNW 6.9 mph - N/A   Clear
3:35 PM 78.8 °F - 60.8 °F 54% 30.02 in 10.0 mi WSW 8.1 mph - N/A   Clear
3:55 PM 78.8 °F - 60.8 °F 54% 30.01 in 10.0 mi WSW 8.1 mph - N/A   Clear
4:15 PM 78.8 °F - 60.8 °F 54% 30.01 in 10.0 mi West 6.9 mph 16.1 mph N/A   Clear
4:35 PM 80.6 °F 81.5 °F 60.8 °F 51% 30.01 in 10.0 mi WSW 6.9 mph - N/A   Clear
4:55 PM 80.6 °F 80.8 °F 57.2 °F 45% 30.01 in 10.0 mi West 8.1 mph 17.3 mph N/A   Clear
5:15 PM 80.6 °F 81.1 °F 59.0 °F 48% 30.01 in 10.0 mi WSW 9.2 mph - N/A   Scattered Clouds
5:35 PM 78.8 °F - 60.8 °F 54% 30.01 in 10.0 mi West 8.1 mph - N/A   Mostly Cloudy
6:15 PM 77.0 °F - 60.8 °F 57% 30.01 in 10.0 mi WSW 6.9 mph - N/A   Mostly Cloudy
6:35 PM 75.2 °F - 60.8 °F 61% 30.01 in 10.0 mi WSW 6.9 mph - N/A   Mostly Cloudy
6:55 PM 75.2 °F - 60.8 °F 61% 30.02 in 10.0 mi WNW 8.1 mph - N/A   Mostly Cloudy
7:15 PM 75.2 °F - 60.8 °F 61% 30.03 in 10.0 mi West 4.6 mph - N/A   Overcast
7:35 PM 73.4 °F - 60.8 °F 65% 30.05 in 10.0 mi NNW 11.5 mph - N/A   Overcast
7:55 PM 71.6 °F - 59.0 °F 64% 30.06 in 10.0 mi North 6.9 mph - N/A   Mostly Cloudy
8:15 PM 71.6 °F - 60.8 °F 69% 30.06 in 10.0 mi NNW 9.2 mph - N/A   Mostly Cloudy
8:35 PM 69.8 °F - 60.8 °F 73% 30.07 in 10.0 mi NNW 13.8 mph 23.0 mph N/A   Scattered Clouds
8:55 PM 68.0 °F - 59.0 °F 73% 30.08 in 10.0 mi NNW 12.7 mph - N/A   Clear
9:15 PM 68.0 °F - 57.2 °F 68% 30.08 in 10.0 mi NW 6.9 mph - N/A   Clear
9:35 PM 66.2 °F - 57.2 °F 73% 30.08 in 10.0 mi Calm Calm - N/A   Clear
9:55 PM 66.2 °F - 57.2 °F 73% 30.08 in 10.0 mi Calm Calm - N/A   Clear
10:15 PM 64.4 °F - 57.2 °F 77% 30.09 in 10.0 mi Calm Calm - N/A   Clear
10:35 PM 64.4 °F - 57.2 °F 77% 30.09 in 10.0 mi WSW 3.5 mph - N/A   Scattered Clouds
10:55 PM 64.4 °F - 57.2 °F 77% 30.09 in 10.0 mi West 3.5 mph - N/A   Scattered Clouds
11:15 PM 64.4 °F - 57.2 °F 77% 30.09 in 10.0 mi WSW 3.5 mph - N/A   Clear
11:35 PM 64.4 °F - 57.2 °F 77% 30.09 in 10.0 mi Calm Calm - N/A   Clear
11:55 PM 64.4 °F - 57.2 °F 77% 30.09 in 10.0 mi Calm Calm - N/A   Clear